Preview of NWS' New Version of Forecast
This preview is not operational and should not be used for support decisions.

Regional Weather Roundup (RWR)

Issued by National Weather Service (NWS)

                            
000
ASUS45 KCYS 191210
RWRWY 

WYOMING REGIONAL WEATHER ROUNDUP
NATIONAL WEATHER SERVICE CHEYENNE WY
600 AM MDT MON AUG 19 2019

NOTE:  "FAIR" INDICATES FEW OR NO CLOUDS BELOW 12,000 FEET
WITH NO SIGNIFICANT WEATHER AND/OR OBSTRUCTIONS TO VISIBILITY.

WYZ001-191300-
...YELLOWSTONE NATIONAL PARK...
  
CITY           SKY/WX    TMP DP  RH WIND       PRES   REMARKS
LK YELLOWSTONE   N/A     36  33  89 CALM      30.25R                  
6HR MIN TEMP:  36; 6HR MAX TEMP:  44;                                

W YELLOWSTONE  NOT AVBL                                               

$$
WYZ002>013-054>058-071-098>099-191300-
...NORTHERN WYOMING...
  
CITY           SKY/WX    TMP DP  RH WIND       PRES   REMARKS
JACKSON        CLEAR     42  33  70 NE6       30.18R                  
CODY           CLEAR     59  39  47 VRB3      29.99R                  
GREYBULL       CLEAR     53  40  61 CALM      29.92R                  
6HR MIN TEMP:  52; 6HR MAX TEMP:  68;                                

WORLAND        CLEAR     52  43  71 CALM      29.93S                  
6HR MIN TEMP:  49; 6HR MAX TEMP:  67;                                

SHERIDAN       CLEAR     48  43  82 CALM      29.90S                  
6HR MIN TEMP:  48; 6HR MAX TEMP:  58;                                

BUFFALO        CLEAR     62  36  37 SW10      29.98S                  
6HR MIN TEMP:  55; 6HR MAX TEMP:  66;                                

GILLETTE       CLEAR     62  53  72 VRB3      29.95S                  
6HR MIN TEMP:  57; 6HR MAX TEMP:  62;                                

HULETT         FAIR      59  50  72 SE3       29.98R                  
NEWCASTLE      FAIR      55  48  76 CALM      29.97S                  

$$
WYZ014>020-022>026-101>103-191300-
...CENTRAL WYOMING...
  
CITY           SKY/WX    TMP DP  RH WIND       PRES   REMARKS
BIG PINEY      PTCLDY    42  30  62 N8        30.22S                  
6HR MIN TEMP:  39; 6HR MAX TEMP:  57;                                

PINEDALE       PTCLDY    41  34  75 N5        30.25R                  
DUBOIS         FAIR      52  30  43 W9        30.16R                  
LANDER         CLEAR     58  34  40 NW6       30.07R                  
6HR MIN TEMP:  57; 6HR MAX TEMP:  70;                                

RIVERTON       CLEAR     57  31  37 VRB3      30.06R                  
6HR MIN TEMP:  55; 6HR MAX TEMP:  68;                                

CASPER         PTCLDY    54  29  38 W8        30.06R                  
6HR MIN TEMP:  50; 6HR MAX TEMP:  62;                                

DOUGLAS        CLEAR     48  45  89 W5        30.04R                  
6HR MIN TEMP:  48; 6HR MAX TEMP:  60;                                


$$
WYZ021-027>030-104>119-191300-
...SOUTHERN WYOMING...
  
CITY           SKY/WX    TMP DP  RH WIND       PRES   REMARKS
EVANSTON       CLEAR     59  22  24 S9        30.23R                  
6HR MIN TEMP:  57; 6HR MAX TEMP:  63;                                

KEMMERER       CLEAR     45  32  61 N7        30.23R                  
FORT BRIDGER   NOT AVBL                                               
ROCK SPRINGS   PTCLDY    55  26  32 CALM      30.20R                  
6HR MIN TEMP:  54; 6HR MAX TEMP:  66;                                

DIXON          FAIR      47  29  51 E13       30.24S                  
RAWLINS        CLEAR     51  26  37 NE5       30.21R                  
6HR MIN TEMP:  48; 6HR MAX TEMP:  63;                                

SARATOGA       FAIR      54  28  37 SE10      30.24R                  
LARAMIE        PTCLDY    46  27  47 S10       30.24R                  
6HR MIN TEMP:  45; 6HR MAX TEMP:  57;                                

CHEYENNE       CLEAR     57  29  34 W9        30.15R                  
6HR MIN TEMP:  57; 6HR MAX TEMP:  68;                                

TORRINGTON     FOG       54  54 100 NE3       29.98S VSB 1/4          
6HR MIN TEMP:  53; 6HR MAX TEMP:  66;                                

PINE BLUFFS    FAIR      50  46  87 SW3       30.07S                  

$$